Location: Lancaster
(34.6980°N, 118.1360°W)
Time: 03:45:48
(UTC-08:00)

Tiangong 2 - Pass Details

Date: 12 November 2017
Orbit: 386 x 391 km, 42.8° (Epoch: 20 November)

Event Time Altitude Azimuth Distance (km) Brightness Sun altitude
Rises 18:21:22 0° 293° (WNW) 2,271 6.0 -19.1°
Reaches altitude 10° 18:23:31 10° 286° (WNW) 1,413 4.9 -19.5°
Maximum altitude 18:26:32 42° 214° (SW) 567 2.2 -20.1°
Enters shadow 18:27:08 37° 182° (S) 620 2.1 -20.2°
